{"data":{"norad_id":62888,"intl_designator":"2025-024K","name":"STARLINK-11438 [DTC]","alt_names":[],"object_type":"PAYLOAD","status":"ACTIVE","operator":null,"country":"US","launch_date":"2025-02-04","launch_site_code":"AFETR","launch_vehicle":null,"mission":null,"orbit_class":"UNKNOWN","rcs_meters":null,"size_class":null,"mass_kg":null,"dimensions":null,"purposes":["comms"],"wikipedia_slug":null,"has_3d_model":false,"image_url":null,"decayed_at":null,"tle_current":{"epoch":"2026-05-25T04:54:17.853120Z","epoch_age_seconds":64297,"freshness":"FRESH","line1":"1 62888U 25024K   26145.20437330  .00216791  00000+0  16456-2 0  9994","line2":"2 62888  43.0007  79.9545 0000981 253.1663 106.9097 15.70892952 75508","mean_motion":15.70892952,"eccentricity":9.81e-5,"inclination_deg":43.0007,"raan_deg":79.9545,"arg_perigee_deg":253.1663,"mean_anomaly_deg":106.9097,"bstar":0.0016456,"rev_number":7550,"period_min":91.667608424027,"perigee_km":355.68306653526,"apogee_km":357.00437165234,"semimajor_km":6734.4807190938,"source":"CELESTRAK","updated_at":"2026-05-25T13:38:19.790142Z"}}}